User: anonymous   Login
Location: Bégole
(43.1574°N, 0.3291°E)
Time: 22:27:02
(UTC+00:00)
Language:

Cosmos 2227 - Orbit

View from above orbital plane
View from above orbital plane
View from above satellite
View from above satellite

Ground track
Ground track

The orbit data is extracted from the following two-line orbital elements,

1 22284U 92093A   24175.65217833 -.00000065  00000-0 -92136-5 0  9994
2 22284  70.9774 260.9245 0020961 257.5398 102.3379 14.13541369624575
Epoch (UTC): 23 June 2024 15:39:08
Eccentricity: 0.0020961
inclination: 70.9774°
perigee height: 832 km
apogee height: 862 km
right ascension of ascending node: 260.9245°
argument of perigee: 257.5398°
revolutions per day: 14.13541369
mean anomaly at epoch: 102.3379°
orbit number at epoch: 62457

The dashed part of the orbit path shows where the satellite is in the earth's shadow,  

DLR